Best Dividend Stocks - Italy

Screen the best dividend stocks for Italy

# Ticker Company Dividend Yield TTM Dividend Yield Streaks Last Quote Quote Date
1 ASC.MI Ascopiave S.p.A 10.97 % 10.97 % 8 3.89 2021-04-09
2 DTE.MI Deutsche Telekom AG 10.95 % 7.30 % 14 16.438 2021-04-09
3 POPR.MI Poligrafici Printing S.p.A 10.12 % 10.12 % 2 0.484 2021-04-09
4 GLE.MI Societe Generale Societe anonyme 10.06 % 10.06 % 8 21.875 2021-04-09
5 AXA.MI AXA SA 9.18 % 9.18 % 22 23.54 2021-04-09
6 ISP.MI Intesa Sanpaolo S.p.A 8.52 % 8.52 % 11 2.254 2021-04-09
7 DEA.MI DeA Capital S.p.A 8.25 % 8.25 % 6 1.454 2021-04-09
8 INW.MI Infrastrutture Wireless Italiane S.p.A 7.68 % 1.40 % 5 9.454 2021-04-09
9 CELL.MI Cellularline S.p.A 7.40 % 7.40 % 2 4.46 2021-04-09
10 UCG.MI UniCredit S.p.A 7.36 % 7.36 % 3 8.557 2021-04-09
11 TOT.MI TOTAL S.A 7.07 % 5.28 % 16 37.89 2021-04-09
12 SRS.MI Saras S.p.A 7.03 % 7.03 % 5 0.569 2021-04-09
13 ACS.MI Acsm-Agam S.p.A 6.87 % 6.87 % 11 2.33 2021-04-09
14 EQUI.MI Equita Group S.p.A 6.38 % 6.38 % 3 2.98 2021-04-09
15 IGD.MI Immobiliare Grande Distribuzione SIIQ S.p.A 6.33 % 6.33 % 16 3.605 2021-04-09
16 SRI.MI Servizi Italia S.p.A 6.21 % 6.21 % 13 2.255 2021-04-09
17 TITR.MI Telecom Italia S.p.A 5.90 % 5.90 % 17 0.466 2021-04-09
18 BAN.MI BasicNet S.p.A 5.76 % 5.76 % 6 4.17 2021-04-09
19 RAT.MI Ratti S.p.A 5.53 % 5.53 % 9 3.98 2021-04-09
20 CNF.MI Conafi S.p.A 5.43 % 5.43 % 3 0.35 2021-04-09
21 ENI.MI Eni S.p.A 5.39 % 5.39 % 19 10.20 2021-04-09
22 BDBR.MI Banco di Desio e della Brianza S.p.A 5.27 % 5.27 % 21 2.36 2021-04-09
23 BAY.MI Bayer Aktiengesellschaft 5.25 % 5.25 % 13 53.37 2021-04-09
24 ENAV.MI ENAV S.p.A 5.15 % 5.15 % 4 4.068 2021-04-09
25 BGN.MI Banca Generali S.p.A 5.10 % 5.10 % 14 30.39 2021-04-09
26 TEF.MI Telefonica, S.A 5.09 % 5.09 % 15 3.79 2021-04-09
27 SRG.MI Snam S.p.A 5.08 % 3.05 % 17 4.673 2021-04-09
28 AZM.MI Azimut Holding S.p.A 5.06 % 5.06 % 13 19.765 2021-04-09
29 A2A.MI A2A S.p.A 5.03 % 5.03 % 19 1.542 2021-04-09
30 BB.MI BB Biotech AG 4.93 % 0.00 % 8 65.20 2021-04-09
31 RWAY.MI Rai Way S.p.A 4.82 % 4.82 % 6 4.83 2021-04-09
32 IG.MI Italgas S.p.A 4.74 % 4.74 % 4 5.40 2021-04-09
33 FCA.MI Fiat Chrysler Automobiles N.V 4.71 % 4.71 % 2 14.85 2021-03-19
34 ANIM.MI Anima Holding S.p.A 4.66 % 4.66 % 6 4.40 2021-04-09
35 PIA.MI Piaggio & C. SpA 4.55 % 4.55 % 6 3.23 2021-04-09
36 MT.MI Maire Tecnimont S.p.A 4.51 % 4.51 % 5 2.572 2021-04-09
37 ALV.MI Allianz SE 4.38 % 4.38 % 14 219.15 2021-04-09
38 PST.MI Poste Italiane SpA 4.36 % 4.36 % 5 10.795 2021-04-09
39 BST.MI Banca Sistema S.p.A 4.35 % 4.35 % 5 2.00 2021-04-09
40 BMED.MI Banca Mediolanum S.p.A 4.33 % 4.33 % 21 7.854 2021-04-09
41 CRES.MI Coima Res S.p.A 4.28 % 4.28 % 4 7.01 2021-04-09
42 INGA.MI ING Groep N.V 4.27 % 4.27 % 6 10.528 2021-04-09
43 CALT.MI Caltagirone SpA 4.20 % 4.20 % 26 3.33 2021-04-09
44 TRN.MI Terna - Rete Elettrica Nazionale Societa per Azioni 4.18 % 4.18 % 16 6.136 2021-04-09
45 ACE.MI ACEA S.p.A 4.14 % 4.14 % 10 18.83 2021-04-09
46 ITM.MI Italmobiliare S.p.A 4.10 % 4.10 % 7 29.25 2021-04-09
47 EUK.MI EuKedos S.p.A 4.07 % 4.07 % 1 1.08 2021-04-09
48 RCS.MI RCS MediaGroup S.p.A 4.05 % 4.05 % 2 0.74 2021-04-09
49 NDT.MI Neodecortech S.p.A 4.04 % 0.00 % 3 3.59 2021-04-09
50 IRE.MI Iren SpA 3.98 % 3.98 % 19 2.322 2021-04-09
51 CBK.MI Commerzbank Ag 3.95 % 3.95 % 2 5.063 2021-04-09
52 CMB.MI Cembre S.p.A 3.95 % 3.95 % 22 22.80 2021-04-09
53 DG.MI Vinci Sa 3.89 % 3.89 % 9 90.21 2021-04-09
54 BDB.MI Banco di Desio e della Brianza S.p.A 3.82 % 3.82 % 26 2.71 2021-04-09
55 ENEL.MI Enel SpA 3.82 % 1.95 % 19 8.594 2021-04-09
56 TEN.MI Tenaris S.A 3.81 % 3.81 % 18 9.18 2021-04-09
57 PIRC.MI Pirelli & C. S.p.A 3.73 % 3.73 % 2 4.906 2021-04-09
58 MN.MI Arnoldo Mondadori Editore S.p.A 3.72 % 3.72 % 1 1.612 2021-04-09
59 SANF.MI Sanofi 3.71 % 3.71 % 14 84.95 2021-04-09
60 FM.MI Fiera Milano SpA 3.64 % 3.64 % 2 3.575 2021-04-09
61 IB.MI Iniziative Bresciane S.p.A 3.59 % 3.59 % 6 18.10 2021-04-09
62 DAL.MI Datalogic S.p.A 3.49 % 3.49 % 10 17.18 2021-04-09
63 MZB.MI Massimo Zanetti Beverage Group S.p.A 3.47 % 3.47 % 5 5.48 2021-02-12
64 SANT.MI Banco Santander, S.A 3.45 % 3.45 % 22 2.902 2021-04-09
65 BAMI.MI Banco BPM Societa per Azioni 3.43 % 3.43 % 1 2.335 2021-04-09
66 EMLOC.MI UBS ETF - J.P. Morgan EM Multi-Factor Enhanced Local Currency Bond UCITS ETF (USD) A-dis 3.40 % 0.00 % 2 12.464 2021-04-09
67 PHIA.MI Koninklijke Philips N.V 3.35 % 3.35 % 14 50.80 2021-04-09
68 ARN.MI Alerion Clean Power S.p.A 3.18 % 3.18 % 11 12.56 2021-04-09
69 SGR.MI SAES Getters S.p.A 3.13 % 3.13 % 10 16.50 2021-04-09
70 FNM.MI FNM S.p.A 3.08 % 3.08 % 8 0.715 2021-04-09
71 HER.MI Hera S.p.A 3.06 % 3.06 % 17 3.267 2021-04-09
72 SICT.MI SICIT Group S.p.A 3.04 % 3.04 % 2 14.80 2021-04-09
73 ERG.MI ERG S.p.A 2.98 % 2.98 % 22 25.14 2021-04-09
74 G.MI Assicurazioni Generali S.p.A 2.95 % 2.95 % 19 16.965 2021-04-09
75 CULT.MI Culti Milano S.p.A 2.91 % 2.91 % 3 5.50 2021-04-09
76 SIE.MI Siemens Aktiengesellschaft 2.78 % 0.00 % 14 140.30 2021-04-09
77 VLS.MI Valsoia S.p.A 2.71 % 2.71 % 14 14.00 2021-04-09
78 VNA.MI Vonovia SE 2.71 % 2.71 % 4 58.00 2021-04-09
79 SGO.MI Compagnie de Saint-Gobain S.A 2.67 % 2.67 % 4 51.70 2021-04-09
80 ZV.MI Zignago Vetro S.p.A 2.48 % 2.48 % 13 17.00 2021-04-09
81 DPW.MI Deutsche Post AG 2.41 % 2.41 % 8 47.755 2021-04-09
82 DAI.MI Daimler AG 2.41 % 1.20 % 10 74.84 2021-04-09
83 OJM.MI Openjobmetis S.p.A 2.32 % 2.32 % 2 9.04 2021-04-09
84 FNL.MI Finlogic S.p.A 2.32 % 2.32 % 3 6.08 2021-04-09
85 TIT.MI Telecom Italia S.p.A 2.30 % 2.30 % 1 0.434 2021-04-09
86 FBK.MI FinecoBank Banca Fineco S.p.A 2.29 % 2.29 % 6 13.97 2021-04-09
87 SG.MI SAES Getters S.p.A 2.28 % 2.28 % 10 21.90 2021-04-09
88 REC.MI Recordati Industria Chimica e Farmaceutica S.p.A 2.24 % 2.24 % 26 45.46 2021-04-09
89 MASI.MI Masi Agricola S.p.A 2.23 % 2.23 % 5 3.14 2021-04-09
90 MARR.MI MARR S.p.A 2.18 % 2.18 % 15 18.36 2021-04-09
91 FRE.MI Fresenius SE & Co. KGaA 2.18 % 2.18 % 4 38.57 2021-04-09
92 SOM.MI Somec S.p.A 2.13 % 2.13 % 2 23.50 2021-04-09
93 VIV.MI Vivendi SA 2.12 % 2.12 % 3 28.30 2021-04-09
94 COM.MI Comer Industries S.p.A 2.10 % 2.10 % 2 16.70 2021-04-09
95 AD.MI Koninklijke Ahold Delhaize N.V 2.10 % 2.10 % 14 23.86 2021-04-09
96 VOW3.MI Volkswagen AG 2.05 % 2.05 % 4 237.60 2021-04-09
97 SOL.MI SOL S.p.A 2.04 % 2.04 % 22 17.12 2021-04-09
98 LD.MI La Doria S.p.A 2.04 % 2.04 % 8 17.78 2021-04-09
99 LDO.MI Leonardo S.p.a 1.98 % 1.98 % 4 7.07 2021-04-09
100 EVK.MI Evonik Industries AG 1.94 % 1.94 % 4 29.91 2021-04-09
# Ticker Company Dividend Yield TTM Dividend Yield Streaks Last Quote Quote Date